Regional Weather Roundup
Issued by NWS

Current Version | Previous Version | Text Only | Print | Product List | Glossary On
Versions: 1 2 3 4 5 6 7 8 9 10 11 12 13 14 15 16 17 18 19 20 21 22 23 24 25 26 27 28 29 30 31 32 33 34 35 36 37 38 39 40 41 42 43 44 45 46 47 48 49 50
000
ASUS42 KFFC 200603
RWRGA
WEATHER ROUNDUP FOR GEORGIA
NATIONAL WEATHER SERVICE PEACHTREE CITY GA
200 AM EDT SAT SEP 20 2014

NOTE: "FAIR" INDICATES FEW OR NO CLOUDS BELOW 12,000 FEET WITH NO
SIGNIFICANT WEATHER AND/OR OBSTRUCTIONS TO VISIBILITY.

* = USE WITH CAUTION. THE STATIONS MARKED WITH AN ASTERISK MAY NOT
REPORT WEATHER SUCH AS PRECIPITATION, FOG, OR THUNDER AND ARE NOT
QUALITY CONTROLLED BY NWS.

THE REMARK "TC" DENOTES TEMPERATURE READING IN DEGREES CELSIUS.

GAZ001>058-200700-
NORTH GEORGIA

CITY           SKY/WX    TMP DP  RH WIND       PRES   REMARKS
ATLANTA        PTCLDY    69  64  84 E14       30.14S
6HR MIN TEMP:  69; 6HR MAX TEMP:  77;

ATHENS         PTCLDY    66  62  87 E6        30.16F
6HR MIN TEMP:  66; 6HR MAX TEMP:  73;

CHAMBLEE       PTCLDY    67  62  84 VRB5      30.15S
6HR MIN TEMP:  67; 6HR MAX TEMP:  75;

PEACHTREE CITY PTCLDY    69  65  86 E6        30.13F
6HR MIN TEMP:  69; 6HR MAX TEMP:  77;

ROME           CLEAR     69  62  78 E5        30.13S
6HR MIN TEMP:  69; 6HR MAX TEMP:  75;

WEST ATLANTA   MOCLDY    71  63  75 E7        30.14S
6HR MIN TEMP:  70; 6HR MAX TEMP:  78;

GAINESVILLE    PTCLDY    67  60  78 E8        30.19F
6HR MIN TEMP:  67; 6HR MAX TEMP:  72;

CARTERSVILLE   CLEAR     69  63  81 VRB6      30.14S
6HR MIN TEMP:  69; 6HR MAX TEMP:  76;



CITY           SKY/WX    TMP DP  RH WIND       PRES   REMARKS
DALTON*        CLEAR     66  61  82 CALM      30.14S
$$

GAZ059>098-102>109-200700-
CENTRAL GEORGIA

CITY           SKY/WX    TMP DP  RH WIND       PRES   REMARKS
AUGUSTA-BUSH   CLEAR     68  65  90 NE6       30.12F
6HR MIN TEMP:  67; 6HR MAX TEMP:  70;

AUGUSTA-DANIEL CLEAR     70  66  87 NE9       30.14F
6HR MIN TEMP:  70; 6HR MAX TEMP:  71; 6HR PCP: TRACE;

COLUMBUS       CLEAR     70  65  84 E8        30.07F
6HR MIN TEMP:  70; 6HR MAX TEMP:  76;

MACON          MOCLDY    68  67  96 NE6       30.09F
6HR MIN TEMP:  67; 6HR MAX TEMP:  74;

ROBINS AFB     CLEAR     69  66  89 VRB5      30.09F


CITY           SKY/WX    TMP DP  RH WIND       PRES   REMARKS
LAGRANGE*      CLEAR     73  69  88 E3        30.10S
SYLVANIA*      CLEAR     71  70  96 NE8       30.09F
MILLEDGEVILLE* CLEAR     70  68  94 CALM      30.12F
$$

GAZ099>101-110>166-200700-
SOUTH GEORGIA

CITY           SKY/WX    TMP DP  RH WIND       PRES   REMARKS
SAVANNAH       MOCLDY    72  67  84 NE7       30.04F
6HR MIN TEMP:  71; 6HR MAX TEMP:  75;

VALDOSTA       CLEAR     71  68  90 NE3       30.01F
6HR MIN TEMP:  71; 6HR MAX TEMP:  73;

ALMA           PTCLDY    70  67  90 VRB3      30.03F
6HR MIN TEMP:  69; 6HR MAX TEMP:  74;

ST SIMONS      LGT RAIN  75  70  84 E14G21    30.00F
6HR MIN TEMP:  73; 6HR MAX TEMP:  79; 6HR PCP:  0.29;

FT STEWART     MOCLDY    71  68  89 N9        30.02F
ALBANY         PTCLDY    70  68  93 N7        30.05F
HUNTER AFB     MOCLDY    71  70  97 NE9       30.02F
MOODY AFB      CLEAR     69  68  95 NE6       30.01F
BRUNSWICK      CLOUDY    72  70  94 CALM      30.01F


CITY           SKY/WX    TMP DP  RH WIND       PRES   REMARKS
BAINBRIDGE*    CLEAR     73  70  88 NE3       30.01F
MOULTRIE*      CLEAR     70  70 100 NE5       30.02F
VIDALIA*       CLEAR     68  68 100 NE8       30.07F
WAYCROSS*      PTCLDY    73  72  95 NE5       30.02S
DOUGLAS*       CLEAR     72  70  94 NE8       30.05S
$$



USA.gov is the U.S. government's official web portal to all federal, state and local government web resources and services.